This is the latest recevied weather packets stored in our database for station/object SR6NWB-11. If no packets are shown the sender has not sent any weather packets the latest 10 day(s).
| Time | Temp. | Humidity | Pressure | Rain* | Wind** | Luminosity | Snow |
|---|---|---|---|---|---|---|---|
| 1777749526 | 15° C | 26% | 1023.9 hPa | 0 mm | - | - | - |
| 1777749036 | 15° C | 26% | 1023.9 hPa | 0 mm | - | - | - |
| 1777748465 | 15.56° C | 25% | 1023.8 hPa | 0 mm | - | - | - |
| 1777745701 | 16.67° C | 22% | 1023.8 hPa | 0 mm | - | - | - |
| 1777745171 | 17.22° C | 22% | 1023.9 hPa | 0 mm | - | - | - |
| 1777743026 | 18.33° C | 20% | 1023.9 hPa | 0 mm | - | - | - |
| 1777739791 | 20.56° C | 18% | 1024.3 hPa | 0 mm | - | - | - |
| 1777738669 | 22.78° C | 17% | 1024.5 hPa | 0 mm | - | - | - |
| 1777738161 | 23.33° C | 16% | 1024.5 hPa | 0 mm | - | - | - |
| 1777737563 | 23.89° C | 16% | 1024.6 hPa | 0 mm | - | - | - |
| 1777735943 | 23.89° C | 16% | 1025.1 hPa | 0 mm | - | - | - |
| 1777735461 | 23.89° C | 16% | 1025.1 hPa | 0 mm | - | - | - |
| 1777734976 | 23.89° C | 16% | 1025.2 hPa | 0 mm | - | - | - |
| 1777734376 | 23.89° C | 16% | 1025.3 hPa | 0 mm | - | - | - |
| 1777733844 | 23.89° C | 17% | 1025.3 hPa | 0 mm | - | - | - |
| 1777733326 | 23.89° C | 17% | 1025.4 hPa | 0 mm | - | - | - |
| 1777732751 | 23.33° C | 17% | 1025.5 hPa | 0 mm | - | - | - |
| 1777732186 | 23.33° C | 17% | 1025.4 hPa | 0 mm | - | - | - |
| 1777731686 | 23.33° C | 18% | 1025.5 hPa | 0 mm | - | - | - |
| 1777731106 | 22.78° C | 18% | 1025.6 hPa | 0 mm | - | - | - |
| 1777730566 | 22.78° C | 19% | 1025.7 hPa | 0 mm | - | - | - |
| 1777730051 | 22.78° C | 19% | 1025.8 hPa | 0 mm | - | - | - |
| 1777729536 | 22.22° C | 20% | 1025.9 hPa | 0 mm | - | - | - |
| 1777728951 | 22.22° C | 20% | 1025.9 hPa | 0 mm | - | - | - |
| 1777728466 | 21.67° C | 20% | 1026 hPa | 0 mm | - | - | - |
* Rain latest hour (hover to see other rain measurements)
** Current wind speed in m/s (hover to see current wind gust speed)